Miscellaneous Local Product
Issued by NWS North Platte, NE

Home | Current Version | Previous Version | Graphics & Text | Print | Product List | Glossary On
Versions: 1 2 3 4 5 6 7 8 9 10 11 12 13 14 15 16 17 18 19 20 21 22 23 24 25 26 27 28 29 30 31 32 33 34 35 36 37 38 39 40 41 42 43 44 45 46 47 48 49 50
000
AXUS43 KLBF 232210
MISLBF


WESTERN AND NORTH CENTRAL NEBRASKA HOURLY WEATHER ROUNDUP
NATIONAL WEATHER SERVICE NORTH PLATTE NE
500 PM CDT SAT SEP 23 2017

NOTE: "FAIR" INDICATES FEW OR NO CLOUDS BELOW 12,000 FEET WITH NO
SIGNIFICANT WEATHER AND/OR OBSTRUCTIONS TO VISIBILITY.

NOTE: STATIONS NOT REPORTING VARIABLES SUCH AS SKY/WEATHER OR
PRESSURE ARE PROVIDED BY RAWS AND APRS NETWORKS AND ARE NOT UNDER
NATIONAL WEATHER SERVICE QUALITY CONTROL.

...OBSERVATIONS IN AND NEAR THE EASTERN PANHANDLE OF NEBRASKA...

CITY           SKY/WX    TMP DP  RH WIND       PRES   REMARKS
PINE RIDGE     LGT RAIN  48  47  96 NE12      29.97F
GORDON         CLOUDY    47  44  90 N7        29.99R
CHADRON        CLOUDY    47  43  86 NE7       30.01R
ALLIANCE       CLOUDY    46  44  93 N13       29.97F
SIDNEY         CLOUDY    48  47  96 N12       29.95F
$$

...OBSERVATIONS IN NORTHERN NEBRASKA AND FAR SOUTHERN SOUTH DAKOTA...

CITY           SKY/WX    TMP DP  RH WIND       PRES   REMARKS
WINNER         RAIN      53  52  96 NW10      29.98  FOG
VALENTINE      CLOUDY    52  49  89 NE12      29.95F
THEDFORD       CLOUDY    53  51  92 N8        29.93F
AINSWORTH      LGT RAIN  51  51 100 N10       29.95F
O`NEILL        CLOUDY    56  56 100 N8        29.90S FOG
ORD            CLOUDY    64  57  78 NW14      29.86R
BROKEN BOW     LGT RAIN  55  53  93 N18G24    29.91F
VALENTINE NWR    N/A     48  47  97 N6G30       N/A
HALSEY           N/A     51  51  99 N5G20       N/A
BUTTE            N/A     54  53  96 N6          N/A
CHAMBERS         N/A     62  57  85 N3          N/A
EWING            N/A     66  61  83 N3          N/A
$$

...OBSERVATIONS IN SOUTHWEST NEBRASKA AND FAR NORTHEAST COLORADO...

CITY           SKY/WX    TMP DP  RH WIND       PRES   REMARKS
WRAY           MOCLDY    59  52  77 E9        29.90R
HOLYOKE        MOCLDY    59  54  82 NE9       29.90F
IMPERIAL       CLOUDY    61  52  72 E12       29.92R
OGALLALA       CLOUDY    59  53  80 E7        29.91S
NORTH PLATTE   RAIN      55  52  89 E14       29.96R FOG
MCCOOK         CLOUDY    61  59  93 N14       29.86F THUNDER
LEXINGTON      CLOUDY    61  58  90 NW13      29.93R
STAPLETON        N/A     52  49  90 CALM        N/A
GOTHENBURG       N/A     56  52  86 N9          N/A
CALLAWAY         N/A     57  54  89 NW20        N/A
$$

...OBSERVATIONS IN CENTRAL LINCOLN COUNTY AREA...

CITY           SKY/WX    TMP DP  RH WIND       PRES   REMARKS
N.P. AIRPORT   RAIN      55  52  89 E14       29.96R FOG
N.P. DOWNTOWN    N/A     55  52  89 MISG        N/A
N.P. SOUTHEAST   N/A     54  51  89 E3          N/A
N.P. HILLCREST   N/A     54  51  90 E13G22      N/A
$$

...SOME OBSERVATIONS FROM AROUND THE REGION...

CITY           SKY/WX    TMP DP  RH WIND       PRES   REMARKS
DENVER         CLOUDY    52  42  69 N13       29.93S
LIMON            N/A    N/A N/A N/A MISG      29.90F
ASPEN          LGT RAIN  43  39  86 S8        29.99F
LARAMIE        LGT RAIN  41  39  93 E10       30.00S
CASPER         CLOUDY    44  42  93 N12       29.97R
CHEYENNE       LGT RAIN  42  40  92 N13G21    29.97F
SCOTTSBLUFF    CLOUDY    48  43  82 N8        29.97S
GRAND ISLAND   CLOUDY    87  63  44 SE18G26   29.82F
OMAHA          PTSUNNY   92  64  39 S22G30    29.86F HX  93
SIOUX FALLS    CLOUDY    69  66  90 N8        29.90R
PIERRE         LGT RAIN  51  49  92 N9        29.95S FOG
RAPID CITY     LGT RAIN  46  45  93 N6        30.06R FOG
BISMARCK       CLOUDY    57  45  64 N10       30.07F
KANSAS CITY    MOSUNNY   87  68  52 S12       29.95F HX  90
HILL CITY      CLOUDY    91  59  33 S22G32    29.80F HX  90
WICHITA        MOSUNNY   89  62  40 S18G30    29.89F
DODGE CITY     MOSUNNY   86  58  38 S25G36    29.86S
OKLAHOMA CITY  MOSUNNY   86  62  44 S18       29.90F
DALLAS         MOSUNNY   94  63  35 SE10G18   29.85F HX  95
$$




USA.gov is the U.S. government's official web portal to all federal, state and local government web resources and services.